Overview Statistics Trail Chart Weather Telemetry Raw packets
 

This is the latest recevied weather packets stored in our database for station/object 9W2NNS-12. If no packets are shown the sender has not sent any weather packets the latest 10 day(s).

<< 37 38 39 40 41 42 43 >>
Time Temp. Humidity Pressure Rain* Wind** Luminosity Snow
1787872830 31.11° C 50% 1012 hPa - - - -
1787872227 31.11° C 51% 1015.3 hPa - - - -
1787871623 31.11° C 50% 1016.5 hPa - - - -
1787871020 31.67° C 53% 1015.5 hPa - - - -
1787869812 31.67° C 55% 1012.7 hPa - - - -
1787869209 31.67° C 55% 1015.1 hPa - - - -
1787868605 31.67° C 54% 1016.8 hPa - - - -
1787868001 32.22° C 53% 1012.4 hPa - - - -
1787867399 32.22° C 53% 1012 hPa - - - -
1787866793 32.22° C 53% 1013.1 hPa - - - -
1787866189 32.22° C 52% 1012.1 hPa - - - -
1787865586 32.22° C 52% 1012.6 hPa - - - -
1787864379 32.78° C 50% 1011.6 hPa - - - -
1787863775 33.33° C 49% 1011.6 hPa - - - -
1787863171 33.33° C 49% 1012.3 hPa - - - -
1787862568 33.33° C 48% 1012.1 hPa - - - -
1787861964 33.89° C 49% 1014.1 hPa - - - -
1787861362 33.89° C 49% 1015.2 hPa - - - -
1787860757 33.89° C 49% 1015.6 hPa - - - -
1787860152 33.89° C 49% 1014.7 hPa - - - -
1787859549 33.89° C 49% 1013.7 hPa - - - -
1787858945 33.89° C 48% 1014.7 hPa - - - -
1787858341 33.89° C 49% 1012.7 hPa - - - -
1787857738 33.89° C 48% 1013.3 hPa - - - -
1787857134 33.89° C 48% 1013.6 hPa - - - -

* Rain since midnight (hover to see other rain measurements)
** Current wind speed in m/s (hover to see current wind gust speed)